[[{"header":{"parameterUnit":"m.s-1","parameterCategory":1,"la1":30.2991,"la2":30.254,"lo1":-89.0895,"lo2":-89.0444,"dy":0.0017,"dx":0.0017,"nx":28,"ny":28,"refTime":"2024-08-17T03:00:00:Z","depth":0,"parameterNumber":2,"parameterNumberName":"U-component_of_WINDS"},"data":[0,0,0,0,0,0,0,0,0,0,0,0,0,0,0,0,0,0,0,0,0,0,0,0,0,0,0,0,0,0,0,0,0,0,0,0,0,0,0,0,0,0,0,0,0,0,0,0,0,0,0,0,0,0,0,0,0,0,3.9982,3.9983,0,4.0133,4.0134,4.0136,4.0097,4.0094,4.0091,4.0088,4.0245,4.0252,4.0259,0,0,0,0,0,0,0,0,0,0,0,0,0,3.9659,3.9666,3.9981,3.9983,3.9985,4.0132,4.0135,4.0137,4.0097,4.0094,4.009,4.0087,4.0243,4.0251,4.0259,0,0,0,0,0,0,0,0,0,0,0,0,0,3.9804,3.9668,3.9981,3.9983,3.9985,4.0132,4.0135,4.0137,4.0098,4.0094,4.0089,4.0085,4.024,4.025,4.0261,4.0415,0,0,4.0293,4.0297,0,0,0,0,0,0,0,0,3.9796,3.9816,3.9981,3.9983,3.9986,4.0091,4.0078,4.023,4.0099,4.0055,4.0088,4.0083,4.0198,4.0211,4.025,4.0423,4.0429,4.0293,4.03,4.0304,4.0307,0,0,0,0,0,0,0,3.9786,3.9809,4.0041,3.9984,3.9986,3.9977,3.9993,4.0107,4.015,4.0059,4.0056,4.0075,4.0198,4.024,4.0253,4.0432,4.0293,4.0302,4.0309,4.0313,4.0737,4.0742,0,0,0,0,0,0,3.9774,3.9801,4.0036,4.0046,3.9878,3.9986,4.0004,4.0062,4.0149,4.0157,4.0078,4.0072,4.0224,4.0241,4.0258,4.0444,4.0304,4.0314,4.032,4.0732,4.0738,4.0744,0,0,0,0,0,0,3.9767,3.9795,4.003,3.9923,3.9952,3.9997,4.0062,4.0067,4.0109,4.0163,4.0171,4.0113,4.0221,4.0244,4.0376,4.0449,4.0319,4.0328,4.0726,4.0734,4.0741,4.0816,0,0,0,0,0,0,3.9758,3.9793,3.9852,3.9924,3.9958,4.0145,4.0067,4.0074,4.0127,4.012,4.0198,4.0206,4.0219,4.0361,4.0386,4.0461,4.0336,4.072,4.073,4.0739,4.0808,4.0826,4.0841,0,0,0,0,0,3.9747,3.9868,3.9855,3.9884,4.0033,4.015,4.0169,4.0181,4.0133,4.0192,4.0227,4.0204,4.0437,4.0374,4.0403,4.0482,4.0715,4.0727,4.0738,4.08,4.0822,4.0841,0,0,0,0,0,0,3.9804,3.9878,3.9864,4.0013,4.0075,4.0143,4.0218,4.0204,4.0282,4.0272,4.0284,4.0302,4.0437,4.0473,4.0402,4.0635,4.0569,4.0587,4.0607,4.0628,4.0644,4.0632,4.0345,0,0,0,0,0,3.9834,3.9923,3.9982,4.0108,4.0139,4.0174,4.0225,4.0229,4.0294,4.032,4.0365,4.043,4.0517,4.0575,4.0658,4.0813,4.0828,4.0881,4.0898,4.0911,4.0926,4.1008,4.1032,4.078,4.078,4.078,0,0,3.9897,3.9948,4.0004,4.012,4.0169,4.026,4.0196,4.0296,4.0364,4.0336,4.0463,4.0498,4.0571,4.0714,4.078,4.0748,4.0999,4.0925,4.0936,4.0943,4.1022,4.1046,4.1067,4.0788,4.0787,4.0785,0,0,4.0058,4.0106,4.0215,4.0265,4.0339,4.036,4.0387,4.0456,4.0478,4.0606,4.0586,4.0667,4.0818,4.087,4.0917,4.1096,4.1077,4.1123,4.121,4.129,4.131,4.1328,4.139,4.1413,4.1138,4.1138,4.1138,0,4.0127,4.0263,4.0273,4.0374,4.0425,4.0403,4.0513,4.0561,4.066,4.0696,4.0659,4.0847,4.0894,4.1049,4.1092,4.1131,4.1161,4.1114,4.1306,4.1324,4.1341,4.1401,4.1424,4.1143,4.1143,4.1142,4.1142,0,4.0344,4.0439,4.0518,4.0611,4.0672,4.0777,4.0802,4.0863,4.0861,4.0887,4.1016,4.1072,4.1166,4.1203,4.1203,4.1358,4.1336,4.1303,4.1237,4.137,4.1426,4.1449,4.115,4.1148,4.1147,4.1146,0,0,4.0546,4.0642,4.0671,4.0713,4.0792,4.0866,4.097,4.106,4.1111,4.118,4.1266,4.1394,4.1363,4.1416,4.1422,4.1492,4.1629,4.1451,4.1452,4.148,4.1801,4.1824,4.1851,4.1617,4.1621,4.1625,4.1794,0,4.0713,4.0895,4.0906,4.107,4.1157,4.1137,4.1227,4.1286,4.1312,4.139,4.142,4.1509,4.1463,4.1494,4.1563,4.1598,4.1693,4.1586,4.1697,4.1701,4.1678,4.188,4.1906,4.2063,4.1817,4.182,4.1823,0,4.0932,4.1005,4.1178,4.1244,4.1281,4.1362,4.1445,4.152,4.1585,4.1599,4.1658,4.1653,4.1759,4.1689,4.1835,4.1762,4.1808,4.1832,4.1838,4.1848,4.1769,4.1895,4.2114,4.2137,4.1858,4.1855,4.1853,0,4.106,4.1202,4.1324,4.136,4.144,4.1497,4.1533,4.1594,4.1648,4.1721,4.1755,4.184,4.1887,4.1953,4.1971,4.1919,4.2116,4.2048,4.213,4.213,4.2172,4.2169,4.24,4.2204,4.2204,4.2203,4.2203,0,4.1245,4.1351,4.1382,4.1457,4.1575,4.1586,4.1703,4.1736,4.179,4.187,4.1859,4.1935,4.1954,4.2034,4.2049,4.2167,4.2188,4.2202,4.2205,4.2203,4.2201,4.2233,4.2222,4.221,4.2208,4.2207,4.2206,0,4.1408,4.1433,4.1564,4.1628,4.1647,4.1731,4.1786,4.1857,4.1882,4.1983,4.2008,4.2047,4.214,4.2164,4.2276,4.2286,4.2424,4.2417,4.2401,4.2401,4.2481,4.2472,4.2739,4.2774,4.2557,4.2559,4.2561,0,4.1523,4.1604,4.1677,4.1729,4.1767,4.1853,4.1906,4.1921,4.1977,4.2057,4.2119,4.221,4.2283,4.2433,4.2471,4.2556,4.255,4.2638,4.2563,4.2557,4.2549,4.2544,4.2551,4.2652,4.2654,4.2656,4.2657,0,4.1726,4.1733,4.1811,4.1893,4.1957,4.2023,4.2085,4.2129,4.2152,4.2217,4.231,4.2367,4.248,4.257,4.2656,4.2693,4.2679,4.2681,4.2704,4.2702,4.2689,4.2695,4.2439,4.2674,4.2673,4.2671,4.2671,4.267,4.1868,4.1938,4.1999,4.2086,4.2134,4.2192,4.2262,4.2294,4.2373,4.2465,4.2469,4.2571,4.2633,4.2746,4.2788,4.2868,4.2841,4.2875,4.2884,4.2892,4.2897,4.2677,4.2884,4.2883,4.2883,4.2882,4.2882,0,4.2068,4.2106,4.2185,4.2272,4.234,4.232,4.2388,4.2446,4.2535,4.2594,4.2666,4.2774,4.2861,4.2905,4.2992,4.3047,4.3043,4.3069,4.3064,4.3073,4.2917,4.2888,4.3071,4.3071,4.3071,4.3071,4.3071,4.3071,4.218,4.2297,4.2312,4.2452,4.249,4.2589,4.2629,4.2682,4.2729,4.2849,4.2921,4.2949,4.3002,4.3092,4.317,4.3181,4.3213,4.3242,4.325,4.3103,4.3084,4.3066,4.3038,4.325,4.325,4.3399,4.34,4.3401]},{"header":{"parameterUnit":"m.s-1","parameterCategory":1,"la1":30.2991,"la2":30.254,"lo1":-89.0895,"lo2":-89.0444,"dy":0.0017,"dx":0.0017,"nx":28,"ny":28,"refTime":"2024-08-17T03:00:00:Z","depth":0,"parameterNumber":3,"parameterNumberName":"V-component_of_WINDS"},"data":[0,0,0,0,0,0,0,0,0,0,0,0,0,0,0,0,0,0,0,0,0,0,0,0,0,0,0,0,0,0,0,0,0,0,0,0,0,0,0,0,0,0,0,0,0,0,0,0,0,0,0,0,0,0,0,0,0,0,-0.486,-0.486,0,-0.4887,-0.4887,-0.4887,-0.4901,-0.4901,-0.4901,-0.4901,-0.4928,-0.4928,-0.4929,0,0,0,0,0,0,0,0,0,0,0,0,0,-0.4819,-0.482,-0.4859,-0.486,-0.486,-0.4887,-0.4887,-0.4887,-0.4901,-0.4901,-0.4901,-0.4901,-0.4928,-0.4928,-0.4929,0,0,0,0,0,0,0,0,0,0,0,0,0,-0.4841,-0.482,-0.4859,-0.487,-0.4872,-0.4886,-0.4887,-0.4887,-0.4901,-0.4901,-0.4901,-0.4901,-0.4927,-0.4928,-0.4929,-0.4935,0,0,-0.4932,-0.4933,0,0,0,0,0,0,0,0,-0.4839,-0.4842,-0.4868,-0.487,-0.4871,-0.4891,-0.4883,-0.4903,-0.4901,-0.489,-0.4901,-0.4901,-0.4915,-0.4917,-0.4922,-0.4936,-0.4938,-0.4933,-0.4933,-0.4934,-0.4934,0,0,0,0,0,0,0,-0.4838,-0.4841,-0.487,-0.4869,-0.487,-0.4874,-0.4877,-0.4887,-0.4902,-0.4891,-0.4892,-0.4895,-0.4916,-0.4921,-0.4923,-0.4938,-0.4933,-0.4933,-0.4934,-0.4935,-0.4959,-0.4959,0,0,0,0,0,0,-0.4835,-0.484,-0.4869,-0.4871,-0.4855,-0.4874,-0.4878,-0.4884,-0.4902,-0.4905,-0.4895,-0.4896,-0.492,-0.4922,-0.4924,-0.4933,-0.4934,-0.4935,-0.4935,-0.4959,-0.4959,-0.4959,0,0,0,0,0,0,-0.4834,-0.4837,-0.4868,-0.4856,-0.486,-0.4875,-0.4882,-0.4885,-0.489,-0.4905,-0.4908,-0.4898,-0.492,-0.4923,-0.4933,-0.4934,-0.4935,-0.4936,-0.4959,-0.4959,-0.4959,-0.4949,0,0,0,0,0,0,-0.4833,-0.4837,-0.4839,-0.4856,-0.4861,-0.4876,-0.4882,-0.4885,-0.4892,-0.4893,-0.4908,-0.4911,-0.492,-0.4931,-0.4934,-0.4935,-0.4937,-0.4959,-0.4959,-0.4959,-0.4949,-0.4949,-0.4948,0,0,0,0,0,-0.4831,-0.4835,-0.4839,-0.4843,-0.4864,-0.4876,-0.4879,-0.489,-0.4892,-0.4894,-0.4904,-0.491,-0.4933,-0.4932,-0.4935,-0.4937,-0.4959,-0.4959,-0.4959,-0.495,-0.4949,-0.4948,0,0,0,0,0,0,-0.4818,-0.4837,-0.4842,-0.4851,-0.4862,-0.4879,-0.4882,-0.4889,-0.4899,-0.4899,-0.4912,-0.4915,-0.4924,-0.4931,-0.493,-0.4944,-0.4947,-0.4947,-0.4938,-0.4938,-0.4937,-0.4935,-0.4938,0,0,0,0,0,-0.4816,-0.4825,-0.4841,-0.4848,-0.4853,-0.4867,-0.4872,-0.488,-0.4891,-0.4896,-0.4906,-0.4917,-0.4927,-0.4933,-0.4942,-0.4951,-0.4954,-0.4954,-0.4953,-0.4953,-0.4953,-0.4958,-0.4958,-0.4959,-0.4959,-0.4959,0,0,-0.4812,-0.4824,-0.4828,-0.4845,-0.4854,-0.4863,-0.487,-0.4879,-0.4886,-0.4897,-0.4907,-0.4916,-0.4928,-0.4938,-0.4942,-0.4944,-0.4954,-0.4953,-0.4952,-0.4953,-0.4958,-0.4958,-0.4958,-0.4959,-0.4959,-0.4959,0,0,-0.4809,-0.4819,-0.4826,-0.4835,-0.4849,-0.4859,-0.486,-0.4876,-0.4882,-0.4893,-0.4902,-0.491,-0.4926,-0.4935,-0.4942,-0.4944,-0.495,-0.4947,-0.4944,-0.4949,-0.4949,-0.4949,-0.495,-0.495,-0.4947,-0.4947,-0.4947,0,-0.4802,-0.4816,-0.4828,-0.4837,-0.4844,-0.4856,-0.4863,-0.4871,-0.4888,-0.4892,-0.4895,-0.4916,-0.4925,-0.4937,-0.4938,-0.4943,-0.4945,-0.4945,-0.4948,-0.4948,-0.4948,-0.4949,-0.495,-0.4947,-0.4947,-0.4947,-0.4947,0,-0.4807,-0.4817,-0.482,-0.4837,-0.4845,-0.4852,-0.4866,-0.4872,-0.4879,-0.4889,-0.49,-0.4912,-0.4924,-0.4928,-0.4934,-0.4941,-0.4942,-0.4946,-0.4949,-0.4948,-0.4949,-0.4949,-0.4946,-0.4946,-0.4946,-0.4946,0,0,-0.4796,-0.482,-0.4821,-0.4829,-0.4846,-0.4853,-0.4862,-0.4875,-0.488,-0.4891,-0.4899,-0.4913,-0.4917,-0.4925,-0.4933,-0.4938,-0.4939,-0.4941,-0.4942,-0.4941,-0.4948,-0.4944,-0.4945,-0.4943,-0.4944,-0.4944,-0.4947,0,-0.4795,-0.4812,-0.4823,-0.4835,-0.4844,-0.4856,-0.4863,-0.4875,-0.4884,-0.4893,-0.4903,-0.4913,-0.4917,-0.4922,-0.4927,-0.4938,-0.4941,-0.4938,-0.4951,-0.4951,-0.4947,-0.4945,-0.4942,-0.4944,-0.4947,-0.4947,-0.4947,0,-0.4797,-0.4809,-0.4821,-0.4838,-0.4843,-0.4849,-0.4863,-0.4871,-0.4884,-0.4891,-0.49,-0.4908,-0.4918,-0.4921,-0.4935,-0.4932,-0.4938,-0.4944,-0.4945,-0.4946,-0.4949,-0.4946,-0.4944,-0.4945,-0.4948,-0.4948,-0.4948,0,-0.4788,-0.4807,-0.4817,-0.4823,-0.4843,-0.4848,-0.4856,-0.4869,-0.4877,-0.4888,-0.4893,-0.4906,-0.4913,-0.4922,-0.4934,-0.4935,-0.4946,-0.495,-0.4952,-0.4952,-0.4954,-0.4953,-0.4952,-0.4958,-0.4958,-0.4958,-0.4958,0,-0.4786,-0.4793,-0.4813,-0.4819,-0.4828,-0.4842,-0.485,-0.4859,-0.4871,-0.488,-0.4891,-0.4898,-0.4913,-0.4923,-0.4932,-0.4942,-0.4945,-0.4951,-0.4953,-0.495,-0.4949,-0.4953,-0.4954,-0.4958,-0.4958,-0.4958,-0.4958,0,-0.4777,-0.479,-0.4802,-0.482,-0.4825,-0.4831,-0.4847,-0.4853,-0.4863,-0.4874,-0.4877,-0.4893,-0.4905,-0.4918,-0.4933,-0.494,-0.495,-0.4953,-0.4945,-0.4946,-0.4948,-0.4948,-0.495,-0.4951,-0.4955,-0.4955,-0.4955,0,-0.4775,-0.4781,-0.48,-0.4807,-0.4815,-0.4826,-0.4834,-0.4847,-0.4855,-0.4871,-0.4876,-0.4889,-0.49,-0.4918,-0.4931,-0.4944,-0.4947,-0.4947,-0.4949,-0.4946,-0.4948,-0.4947,-0.4948,-0.4947,-0.4946,-0.4946,-0.4946,0,-0.477,-0.4777,-0.4788,-0.4801,-0.481,-0.4822,-0.4833,-0.4838,-0.4855,-0.4863,-0.4875,-0.4884,-0.4901,-0.4914,-0.4928,-0.4937,-0.4944,-0.4946,-0.4947,-0.4943,-0.4939,-0.4942,-0.4943,-0.4946,-0.4946,-0.4946,-0.4946,-0.4946,-0.4764,-0.477,-0.4785,-0.4797,-0.4808,-0.4819,-0.4826,-0.4838,-0.4849,-0.4864,-0.4871,-0.4884,-0.4898,-0.4918,-0.4927,-0.4937,-0.4939,-0.4941,-0.4941,-0.4941,-0.4941,-0.4937,-0.494,-0.494,-0.494,-0.494,-0.494,0,-0.476,-0.477,-0.4782,-0.4798,-0.4808,-0.4815,-0.4828,-0.4836,-0.4847,-0.486,-0.4871,-0.4886,-0.4898,-0.4913,-0.4926,-0.4932,-0.4936,-0.4935,-0.4934,-0.4936,-0.4938,-0.4935,-0.4931,-0.4931,-0.4931,-0.4931,-0.4931,-0.4931,-0.4759,-0.477,-0.4779,-0.4795,-0.4806,-0.4818,-0.4826,-0.4836,-0.4846,-0.4862,-0.4873,-0.4883,-0.4896,-0.4911,-0.4923,-0.4927,-0.4932,-0.493,-0.4935,-0.4935,-0.4936,-0.4937,-0.4935,-0.4931,-0.4931,-0.4932,-0.4932,-0.4932]}]]